Weather History for Hamilton Island, Queensland

Change the Weather History Date:

Friday, September 27, 2013

  Actual Average Record
Temperature  
Mean Temperature 76 °F -  
Max Temperature 80 °F - - ()
Min Temperature 72 °F - - ()
Cooling Degree Days 11    
Growing Degree Days 26 (Base 50)    
Moisture  
Dew Point 70 °F    
Average Humidity 86    
Maximum Humidity 94    
Minimum Humidity 67    
Precipitation  
Precipitation 0.00 in - - ()
Sea Level Pressure  
Sea Level Pressure 29.96 in    
Wind  
Wind Speed 16 mph ()    
Max Wind Speed 21 mph    
Max Gust Speed -    
T = Trace of Precipitation, MM = Missing Value Source: Averaged Metar Reports

Daily Weather History Graph

Daily Weather History Graph

Search for Another Location

Airport:

Trip Planner

Search our weather history database for the weather conditions in past years. The results will help you decide how hot, cold, wet, or windy it might be!

Date:

Astronomy

Sep. 27, 2013 Rise Set
Actual Time 5:49 AM AEST 6:01 PM AEST
Civil Twilight 5:27 AM AEST 6:23 PM AEST
Nautical Twilight 5:01 AM AEST 6:49 PM AEST
Astronomical Twilight 4:35 AM AEST 7:14 PM AEST
Moon 12:01 AM AEST (9/27) 11:22 AM AEST (9/27)
Length of Visible Light 12h 55m
Length of Day
12h 11m
Waning Gibbous, 51% of the Moon is Illuminated
Sep 27
Waning Gibbous
Sep 27
Last Quarter
Oct 5
New
Oct 12
First Quarter
Oct 19
Full

Hourly Weather History & Observations

Time (AEST) Temp. Heat Index Dew Point Humidity Pressure Visibility Wind Dir Wind Speed Gust Speed Precip Events Conditions
12:00 AM 73 °F - 71 °F 90% 29.97 in - NNW 19.6 mph - -  
12:00 AM 73.4 °F - 71.6 °F 94% 29.95 in - NNW 19.6 mph - N/A   Unknown
12:30 AM 73.4 °F - 71.6 °F 94% 29.95 in - NW 19.6 mph - N/A   Unknown
1:00 AM 73.4 °F - 69.8 °F 88% 29.95 in - NNW 20.7 mph - N/A   Unknown
1:30 AM 73.4 °F - 69.8 °F 88% 29.92 in - NNW 20.7 mph - N/A   Unknown
2:00 AM 73.4 °F - 69.8 °F 88% 29.92 in - NW 20.7 mph - N/A   Unknown
2:30 AM 73.4 °F - 71.6 °F 94% 29.92 in - NW 19.6 mph - N/A   Unknown
3:00 AM 73 °F - 71 °F 92% 29.93 in - NW 17.3 mph - -  
3:00 AM 73.4 °F - 71.6 °F 94% 29.92 in - NW 17.3 mph - N/A   Unknown
3:30 AM 73.4 °F - 69.8 °F 88% 29.95 in - NW 15.0 mph - N/A   Unknown
4:00 AM 73.4 °F - 69.8 °F 88% 29.95 in - NW 15.0 mph - N/A   Unknown
4:30 AM 73.4 °F - 69.8 °F 88% 29.95 in - WNW 12.7 mph - N/A   Unknown
5:00 AM 73.4 °F - 69.8 °F 88% 29.98 in - WNW 10.4 mph - N/A   Unknown
5:30 AM 73.4 °F - 69.8 °F 88% 29.98 in - WNW 9.2 mph - N/A   Unknown
6:00 AM 72 °F - 70 °F 92% 30.00 in - WNW 6.9 mph - -  
6:00 AM 71.6 °F - 69.8 °F 94% 29.98 in - WNW 6.9 mph - N/A   Unknown
6:30 AM 73.4 °F - 69.8 °F 88% 30.01 in - West 4.6 mph - N/A   Unknown
7:00 AM 73.4 °F - 69.8 °F 88% 30.01 in - NW 9.2 mph - N/A   Unknown
7:30 AM 73.4 °F - 69.8 °F 88% 30.01 in - NW 16.1 mph - N/A   Unknown
8:00 AM 75.2 °F - 69.8 °F 83% 30.01 in - NW 17.3 mph - N/A   Unknown
9:30 AM 75.2 °F - 71.6 °F 89% 30.01 in - NW 19.6 mph - N/A   Unknown
10:30 AM 77.0 °F - 71.6 °F 83% 30.01 in - NW 18.4 mph - N/A   Unknown
11:00 AM 78.8 °F - 69.8 °F 74% 30.01 in - NNW 18.4 mph - N/A   Unknown
12:00 PM 79 °F - 70 °F 67% 29.98 in - NW 18.4 mph - -  
12:00 PM 78.8 °F - 69.8 °F 74% 29.98 in - NW 18.4 mph - N/A   Unknown
1:00 PM 78.8 °F - 69.8 °F 74% 29.95 in - NW 18.4 mph - N/A   Unknown
1:30 PM 80.6 °F 83.9 °F 69.8 °F 70% 29.95 in - NW 18.4 mph - N/A   Unknown
2:30 PM 78.8 °F - 69.8 °F 74% 29.92 in - NW 19.6 mph - N/A   Unknown
4:00 PM 78.8 °F - 69.8 °F 74% 29.92 in - NW 18.4 mph - N/A   Unknown
5:00 PM 77.0 °F - 69.8 °F 78% 29.92 in - NW 20.7 mph - N/A   Unknown
6:00 PM 75 °F - 70 °F 81% 29.92 in - NNW 18.4 mph - -  
6:00 PM 75.2 °F - 69.8 °F 83% 29.92 in - NNW 18.4 mph - N/A   Unknown
7:00 PM 75.2 °F - 71.6 °F 89% 29.92 in - NW 20.7 mph - N/A   Unknown
10:00 PM 75.2 °F - 71.6 °F 89% 29.98 in - NNW 17.3 mph - N/A   Unknown
11:00 PM 73.4 °F - 71.6 °F 94% 29.95 in - NNW 20.7 mph - N/A   Unknown
11:30 PM 73.4 °F - 71.6 °F 94% 29.95 in - NNW 18.4 mph - N/A   Unknown